This demonstration page uses our WeatherBlox Daily Observations layout. Learn more.

Left ArrowRight Arrow

Hourly Observations for June 4, 2018

Temp ( °F °C ) Dew Point ( °F °C ) Humidity (%) Winds ( mph kmh ) Pressure ( in mb ) Visibility ( mi km ) Precip ( " mm )
12:53 am 00:53 Clear 65 18.3 46 7.8 51 51 VRB 5 7 29.77 1008 10 16 0.00 0.00
1:53 am 01:53 Clear 64 17.8 48 8.9 56 56 Calm 29.75 1007 10 16 0.00 0.00
2:53 am 02:53 Clear 61 16.1 50 10 67 67 WNW 10 17 29.75 1008 10 16 0.00 0.00
3:53 am 03:53 Clear 58 14.4 50 10 75 75 NE 5 7 29.73 1007 10 16 0.00 0.00
4:53 am 04:53 Clear 54 12.2 50 10 87 87 W 6 9 29.76 1008 10 16 0.00 0.00
5:53 am 05:53 Sunny 59 15 52 11.1 78 78 SSW 5 7 29.75 1007 10 16 0.00 0.00
6:53 am 06:53 Sunny 59 15 52 11.1 78 78 N 3 6 29.73 1007 10 16 0.00 0.00
7:53 am 07:53 Sunny 70 21.1 53 11.7 55 55 WSW 10 17 29.72 1006 10 16 0.00 0.00
8:53 am 08:53 Sunny 70 21.1 52 11.1 53 53 W 13 20 29.73 1007 10 16 0.00 0.00
9:53 am 09:53 Sunny 71 21.7 53 11.7 53 53 SW 12 19 29.71 1006 10 16 0.00 0.00
10:53 am 10:53 Sunny 78 25.6 51 10.6 39 39 WSW 10 17 29.70 1006 10 16 0.00 0.00
11:53 am 11:53 Sunny 82 27.8 47 8.3 29 29 SW 16 26 29.68 1005 10 16 0.00 0.00
12:53 pm 12:53 Sunny 83 28.3 48 8.9 30 30 SSW 13 20 29.67 1005 10 16 0.00 0.00
1:53 pm 13:53 Sunny 85 29.4 46 7.8 26 26 WSW 18 30 29.65 1004 10 16 0.00 0.00
2:53 pm 14:53 Sunny 85 29.4 48 8.9 28 28 W 13 20 29.63 1004 10 16 0.00 0.00
3:19 pm 15:19 Mostly Cloudy with Nearby Thunderstorms 80 26.7 47 8.3 31 31 WNW 21 33 29.56 1001 10 16 0.00 0.00
3:40 pm 15:40 Mostly Sunny 82 28 48 9 30 30 NW 17 28 29.53 1000 10 16 0.00 0.00
3:53 pm 15:53 Sunny 83 28.3 49 9.4 31 31 NW 16 26 29.64 1004 10 16 0.00 0.00
4:53 pm 16:53 Sunny 84 28.9 48 8.9 29 29 WNW 13 20 29.63 1003 10 16 0.00 0.00
5:53 pm 17:53 Sunny 81 27.2 47 8.3 30 30 WNW 14 22 29.62 1003 10 16 0.00 0.00
6:30 pm 18:30 Mostly Cloudy with Nearby Thunderstorms 79 26 46 8 32 32 WNW 18 30 29.56 1001 10 16 0.00 0.00
6:38 pm 18:38 Mostly Cloudy with Thunderstorms 73 23 52 11 47 47 VRB 5 7 29.59 1002 4 6 0.00 0.00
6:53 pm 18:53 Mostly Cloudy with Nearby Thunderstorms 76 24.4 51 10.6 42 42 WNW 16 26 29.68 1005 10 16 0.02 0.51
7:01 pm 19:01 Mostly Cloudy 77 25 48 8.9 36 36 WNW 14 22 29.59 1002 10 16 0.00 0.00
7:53 pm 19:53 Mostly Cloudy 72 22.2 46 7.8 40 40 WNW 15 24 29.69 1006 10 16 0.00 0.03
8:53 pm 20:53 Mostly Cloudy with Light Rain 67 19.4 46 7.8 47 47 W 13 20 29.73 1007 10 16 0.00 0.03
9:53 pm 21:53 Mostly Cloudy 64 17.8 48 8.9 56 56 SW 12 19 29.75 1007 10 16 0.00 0.03
10:53 pm 22:53 Clear 63 17.2 46 7.8 54 54 WSW 10 17 29.75 1007 10 16 0.00 0.00
11:53 pm 23:53 Mostly Cloudy 62 16.7 44 6.7 52 52 SW 10 17 29.77 1008 10 16 0.00 0.00

Powered by AerisWeather